Main page
Satellite images Climate Cyclones Lightning AirportsFAQ Languages Contact Newsletter About
Weather : Europe Africa North America South America Asia Australia-Oceania Others

surat-thani-th, Surat Thani, Surat Thani International Airport

48551

latitude: , longitude: Thailand, elevation: 09-07N m


METAR: VTSB 181100Z 29003KT 6000 -RA SCT018 BKN100 26/25 Q1005 RERA